[[{"header":{"parameterUnit":"m.s-1","parameterCategory":1,"la1":30.2992,"la2":30.254,"lo1":-89.0895,"lo2":-89.0443,"dy":0.0025,"dx":0.0025,"nx":19,"ny":19,"refTime":"2026-04-27T21:00:00:Z","depth":0,"parameterNumber":2,"parameterNumberName":"U-component_of_WINDS"},"data":[0,0,0,-2.436,-2.4362,-2.443,-2.4431,-2.4524,-2.4525,0,0,0,0,0,0,0,0,0,0,0,-2.4341,-2.4342,-2.436,-2.4362,-2.443,-2.4431,-2.4524,-2.4525,0,0,0,0,0,0,0,0,0,0,0,-2.4341,-2.4341,-2.4342,-2.4362,-2.443,-2.4431,-2.4524,-2.4471,0,0,0,0,0,0,0,0,0,0,-2.4403,-2.4386,-2.4341,-2.4342,-2.4363,-2.443,-2.4431,-2.4468,-2.4474,-2.4495,0,-2.4512,0,-2.452,-2.4532,-2.4532,0,0,0,-2.4361,-2.4381,-2.4398,-2.4342,-2.4363,-2.443,-2.4399,-2.4471,-2.4478,-2.4503,-2.4513,-2.4517,-2.4522,-2.4532,-2.4533,-2.4653,-2.4653,0,0,-2.4358,-2.4354,-2.4394,-2.4403,-2.439,-2.4397,-2.4401,-2.4475,-2.4487,-2.4514,-2.4519,-2.4523,-2.4533,-2.4534,-2.4652,-2.4653,0,0,0,-2.4347,-2.4352,-2.4367,-2.4399,-2.4411,-2.4399,-2.4404,-2.4484,-2.4489,-2.452,-2.4524,-2.4534,-2.4535,-2.4652,-2.4653,-2.4677,0,0,0,-2.4345,-2.4345,-2.4366,-2.4364,-2.4409,-2.4448,-2.4411,-2.4484,-2.4492,-2.4524,-2.4534,-2.4536,-2.4651,-2.4652,-2.4675,-2.4689,0,0,0,-2.4336,-2.4344,-2.4355,-2.4364,-2.4393,-2.4446,-2.4456,-2.4486,-2.4495,-2.4532,-2.4536,-2.4651,-2.4652,-2.4673,-2.4686,-2.4719,0,0,0,-2.4326,-2.4375,-2.4355,-2.4412,-2.4392,-2.4461,-2.4456,-2.4507,-2.4542,-2.4534,-2.4651,-2.4652,-2.4672,-2.4684,-2.4717,-2.4746,-2.4758,0,0,-2.4386,-2.4382,-2.4416,-2.44,-2.4471,-2.4451,-2.4527,-2.4562,-2.457,-2.4625,-2.4628,-2.4676,-2.4685,-2.4719,-2.4827,-2.4836,0,0,0,-2.4434,-2.4458,-2.4478,-2.451,-2.4538,-2.4565,-2.4589,-2.4603,-2.465,-2.4597,-2.4698,-2.4704,-2.4723,-2.4737,-2.4745,-2.4763,-2.4659,-2.4659,-2.4659,-2.4512,-2.4519,-2.4576,-2.4592,-2.4625,-2.4651,-2.4678,-2.4702,-2.4699,-2.4724,-2.4739,-2.4804,-2.482,-2.4826,-2.4845,-2.4756,-2.4757,-2.4757,-2.4757,-2.4599,-2.4635,-2.4633,-2.4687,-2.4696,-2.4743,-2.4772,-2.4769,-2.4815,-2.4792,-2.481,-2.4782,-2.4836,-2.4853,-2.4759,-2.4758,-2.4758,-2.4758,-2.4758,-2.465,-2.4668,-2.4685,-2.4734,-2.4772,-2.4789,-2.4834,-2.4841,-2.4848,-2.4866,-2.4884,-2.4884,-2.4884,-2.4874,-2.4875,-2.4875,-2.4875,-2.4875,-2.4875,-2.4695,-2.4713,-2.4749,-2.4785,-2.4808,-2.484,-2.487,-2.4894,-2.4923,-2.4925,-2.4925,-2.4921,-2.484,-2.4819,-2.4879,-2.4878,-2.4878,-2.4877,-2.4877,-2.4779,-2.4762,-2.4816,-2.484,-2.4885,-2.4924,-2.4934,-2.4983,-2.5004,-2.5027,-2.5021,-2.496,-2.4956,-2.495,-2.4933,-2.5018,-2.5018,-2.5018,-2.5018,-2.482,-2.482,-2.4879,-2.4917,-2.4955,-2.497,-2.5035,-2.5061,-2.5085,-2.51,-2.5089,-2.5067,-2.5061,-2.5061,-2.5053,-2.5036,-2.5146,-2.5147,-2.5147,-2.4873,-2.4877,-2.4929,-2.4951,-2.4988,-2.5021,-2.5083,-2.5129,-2.5153,-2.5152,-2.5111,-2.5106,-2.5071,-2.5059,-2.5054,-2.504,-2.5011,0,0]},{"header":{"parameterUnit":"m.s-1","parameterCategory":1,"la1":30.2992,"la2":30.254,"lo1":-89.0895,"lo2":-89.0443,"dy":0.0025,"dx":0.0025,"nx":19,"ny":19,"refTime":"2026-04-27T21:00:00:Z","depth":0,"parameterNumber":3,"parameterNumberName":"V-component_of_WINDS"},"data":[0,0,0,4.3926,4.3924,4.3818,4.3818,4.3676,4.3675,0,0,0,0,0,0,0,0,0,0,0,4.3955,4.3954,4.3926,4.3923,4.3818,4.3818,4.3676,4.3675,0,0,0,0,0,0,0,0,0,0,0,4.3956,4.3955,4.3954,4.3923,4.3818,4.3818,4.3677,4.3758,0,0,0,0,0,0,0,0,0,0,4.3861,4.3887,4.3955,4.3953,4.3922,4.3818,4.3818,4.3762,4.3753,4.3722,0,4.3696,0,4.3684,4.3665,4.3665,0,0,0,4.3924,4.3895,4.3869,4.3953,4.3921,4.3818,4.3866,4.3757,4.3747,4.371,4.3694,4.3689,4.3681,4.3664,4.3664,4.3492,4.3491,0,0,4.393,4.3935,4.3876,4.3862,4.3881,4.3869,4.3862,4.3751,4.3733,4.3694,4.3686,4.3679,4.3663,4.3662,4.3493,4.3492,0,0,0,4.3946,4.3939,4.3915,4.3868,4.3849,4.3866,4.3858,4.3738,4.373,4.3684,4.3677,4.3663,4.3661,4.3494,4.3492,4.3459,0,0,0,4.395,4.3948,4.3918,4.392,4.3852,4.3793,4.3848,4.3738,4.3725,4.3678,4.3663,4.3659,4.3494,4.3493,4.3462,4.3441,0,0,0,4.3963,4.395,4.3935,4.392,4.3875,4.3794,4.378,4.3735,4.372,4.3665,4.3659,4.3495,4.3493,4.3464,4.3445,4.3398,0,0,0,4.3977,4.3903,4.3934,4.3849,4.3876,4.3776,4.3781,4.3704,4.3653,4.3662,4.3494,4.3492,4.3465,4.3448,4.3401,4.336,4.3344,0,0,4.3887,4.3892,4.3842,4.3866,4.3762,4.3791,4.3681,4.3626,4.3614,4.3533,4.3529,4.3461,4.3445,4.3399,4.325,4.3237,0,0,0,4.3815,4.3779,4.375,4.3703,4.3662,4.3625,4.3588,4.3569,4.35,4.3575,4.3431,4.3422,4.3394,4.3374,4.3363,4.3339,4.3484,4.3484,4.3484,4.3692,4.3685,4.3601,4.3581,4.3535,4.35,4.3461,4.3428,4.3431,4.3397,4.3373,4.3284,4.3261,4.3252,4.3228,4.3351,4.3351,4.335,4.335,4.3558,4.3506,4.3516,4.3439,4.3431,4.3364,4.3327,4.3332,4.3268,4.3301,4.3276,4.3312,4.3239,4.3217,4.3348,4.3348,4.3348,4.3349,4.3349,4.3477,4.3451,4.3431,4.3364,4.3313,4.3295,4.3235,4.3228,4.3222,4.3198,4.3172,4.3172,4.3172,4.3186,4.3186,4.3185,4.3185,4.3185,4.3185,4.34,4.3379,4.333,4.3284,4.3254,4.3214,4.318,4.3149,4.3114,4.3114,4.3114,4.3121,4.3233,4.3262,4.318,4.3181,4.3181,4.3182,4.3182,4.3267,4.3297,4.3222,4.3193,4.3139,4.3089,4.3084,4.3023,4.2997,4.2968,4.298,4.3065,4.3069,4.3078,4.3101,4.2982,4.2982,4.2982,4.2982,4.3198,4.3202,4.3125,4.3079,4.3033,4.3021,4.2936,4.2909,4.2885,4.2868,4.2885,4.2916,4.2925,4.2923,4.2935,4.2957,4.2804,4.2804,4.2804,4.3116,4.3115,4.3044,4.3025,4.2983,4.2946,4.2866,4.2811,4.279,4.2797,4.2855,4.2863,4.2912,4.2929,4.2936,4.2954,4.2994,0,0]}]]